This is the latest recevied weather packets stored in our database for station/object N5LSN. If no packets are shown the sender has not sent any weather packets the latest 1 day(s).
| Time | Temp. | Humidity | Pressure | Rain* | Wind** | Luminosity | Snow |
|---|---|---|---|---|---|---|---|
| 1778062846 | 10° C | 99% | 1011.8 hPa | 0 mm | - | 0 W/m² | - |
| 1778062543 | 10° C | 99% | 1011.6 hPa | 0 mm | - | 0 W/m² | - |
| 1778061030 | 10.56° C | 99% | 1011.6 hPa | 0 mm | - | 0 W/m² | - |
| 1778060728 | 10.56° C | 99% | 1011.1 hPa | 0 mm | - | 0 W/m² | - |
| 1778059821 | 10.56° C | 99% | 1011.5 hPa | 0 mm | - | 0 W/m² | - |
| 1778059519 | 10.56° C | 99% | 1010.9 hPa | 0.51 mm | - | 0 W/m² | - |
| 1778059215 | 10.56° C | 99% | 1011.2 hPa | 1.27 mm | - | 0 W/m² | - |
| 1778057701 | 11.11° C | 99% | 1010.6 hPa | 0 mm | - | 0 W/m² | - |
| 1778056185 | 11.67° C | 99% | 1012.8 hPa | 3.56 mm | - | 0 W/m² | - |
| 1778055882 | 11.67° C | 99% | 1010.6 hPa | 1.78 mm | - | 0 W/m² | - |
| 1778054670 | 12.22° C | 99% | 1009.1 hPa | 27.69 mm | - | 0 W/m² | - |
| 1778054368 | 12.78° C | 99% | 1009.2 hPa | 19.3 mm | - | 0 W/m² | - |
| 1778054065 | 12.78° C | 99% | 1008.5 hPa | 3.05 mm | - | 0 W/m² | - |
| 1778053762 | 12.78° C | 99% | 1008.6 hPa | 2.29 mm | - | 0 W/m² | - |
| 1778053459 | 13.33° C | 99% | 1008.4 hPa | 3.05 mm | - | 0 W/m² | - |
| 1778053156 | 13.89° C | 99% | 1008.4 hPa | 19.81 mm | - | 0 W/m² | - |
| 1778052854 | 14.44° C | 99% | 1008.4 hPa | 17.53 mm | - | 0 W/m² | - |
| 1778052551 | 15° C | 99% | 1009.2 hPa | 0 mm | - | 0 W/m² | - |
| 1778051946 | 17.78° C | 99% | 1007.6 hPa | 0.51 mm | - | 0 W/m² | - |
| 1778051340 | 16.11° C | 99% | 1007.6 hPa | 0.51 mm | - | 0 W/m² | - |
| 1778051038 | 16.11° C | 98% | 1007.6 hPa | 1.78 mm | - | 0 W/m² | - |
| 1778050432 | 18.89° C | 95% | 1008.2 hPa | 1.27 mm | - | 0 W/m² | - |
| 1778050129 | 22.78° C | 98% | 1007 hPa | 0.51 mm | - | 0 W/m² | - |
| 1778049219 | 22.78° C | 98% | 1006.6 hPa | 0 mm | - | 0 W/m² | - |
| 1778048917 | 22.22° C | 98% | 1007.1 hPa | 0 mm | - | 0 W/m² | - |
* Rain latest hour (hover to see other rain measurements)
** Current wind speed in m/s (hover to see current wind gust speed)